FREGAT DEB, 45889

Orbit data source: Space-Track

FREGAT DEB, 45889 is space debris in LEO originally from a launch on Mon, 18 Jul 2011 UTC launched from the Tyuratam Missile And Space Complex (TTMTR). Debris objects in space refer to the collection of defunct objects orbiting the Earth. Examples of debris include non-operational satellites, rocket bodies, and fragments generated from explosions, collisions, or faulty payload assembly.

Loading next visibility...
Identifier
45889, 2011-037DJ
Orbit
LEO
Last TLE update
8 hours ago
Origin
Manufacturer
Lavochkin
Mission
Spacecraft
Bus & Motor
Unknown
Mass
Unknown
Launch date (UTC)
Icon of a cake. It is the launch day of the satellite!2011-07-18 (14 years ago)
Launch vehicle
Unknown
Launch site
Tyuratam Missile And Space Complex (TTMTR)
Object type
Payload
Rocket body
Debris
Shape & HBR
Unknown
Radar Cross Section
Small (<0.1 m²)

Expand to show TLE details & history

TLE from 8 hours ago
0 FREGAT DEB
1 45889U 11037DJ  25199.66379738  .00088428  00000-0  11040-1 0  9998
2 45889  51.3359 192.8499 0909871  40.4774 326.0308 13.40639146217014
Epoch: 2025-07-18T15:55Z
TLE epoch observation values (Epoch: 2025-07-18T15:55:52.093Z)
Latitude
-0.00002°
Longitude
17.17081°
Altitude
564.45 km
Speed
7.85 km/s
True Right ascension
12h 51m 23s
True Declination
0° 00' 00"
Sunlit
Object was in daylight at epoch
Visualization orbit readout
Latitude
8.71691°
Longitude
-171.0349°
Altitude
1,478.743 km
Speed
6.947 km/s
Apparent Right ascension
00h 26m 22s
Apparent Declination
-12° 51' 01"
Sunlit
Object is in daylight
Visualization observer readout
Local Sidereal Time
12:38:45
Azimuth
6.608° NNE
Elevation
-62.797°
Doppler factor
1
Orbital elements
Apogee altitude
1,788.502 km
Perigee altitude
426.325 km
Semi-major axis
7,485.55 km
Eccentricity
0.09099
Inclination
51.3359°
RAAN
192.8499°
Arg. of periapsis
40.4774°
True anomaly
319.61481°
Mean anomaly
326.0308°
Eccentric anomaly
322.88509°
Mean motion
3.35126 °/min
Orbital period
107.42 mins
BSTAR
0.01104
Loading maneuver chart data...
Loading SW <> Apogee altitude chart data...
Loading historical data...
Loading historical data...
Loading historical data...
Loading historical data...
Loading historical data...
Loading historical data...
Loading historical data...
|